EW0139 Weather Reports


time (UTC)temp
C
wind
direction
speed
KPH
gust
KPH
rain 1hr
cm
rain 24hr
cm
rain mn
cm
humidity
%
barometer
mb
20260906215243 26 30 14.5 22.5 0.00 0.00 0.00 59 1011.1
20260906213751 25 6 8.0 20.9 0.00 0.00 0.00 61 1011.1
20260906212306 25 355 6.4 22.5 0.00 0.00 0.00 63 1011.4
20260906210750 23 45 8.0 32.2 0.00 0.00 0.00 65 1012.3
20260906205242 23 359 11.3 32.2 0.00 0.00 0.00 65 1012.2
20260906203754 24 55 9.7 25.7 0.00 0.00 0.00 65 1012.4
20260906202306 26 3 6.4 22.5 0.00 0.00 0.00 60 1012.1
20260906200759 27 36 8.0 24.1 0.00 0.00 0.00 57 1012.0
20260906195248 27 2 4.8 19.3 0.00 0.00 0.00 56 1012.1
20260906193801 26 35 8.0 22.5 0.00 0.00 0.00 59 1012.1
20260906192248 26 40 9.7 11.3 0.00 0.00 0.00 60 1012.3
20260906190756 26 51 6.4 11.3 0.00 0.00 0.00 62 1012.6
20260906185249 26 42 8.0 14.5 0.00 0.00 0.00 63 1012.6
20260906183820 26 7 0.0 11.3 0.00 0.00 0.00 62 1012.0
20260906182251 26 61 6.4 16.1 0.00 0.00 0.00 64 1012.0
20260906180740 25 43 4.8 14.5 0.00 0.00 0.00 65 1012.5
20260906175251 24 46 6.4 16.1 0.00 0.00 0.00 67 1012.2
20260906173803 23 46 6.4 11.3 0.00 0.00 0.00 68 1012.8
20260906172250 24 38 6.4 14.5 0.00 0.00 0.00 67 1013.1
20260906170742 23 341 9.7 9.7 0.00 0.00 0.00 69 1013.0
20260906165253 23 278 1.6 8.0 0.00 0.00 0.00 69 1013.6
20260906163742 23 279 4.8 9.7 0.00 0.00 0.00 69 1013.7
20260906162255 23 315 16.1 16.1 0.00 0.00 0.00 69 1013.1
20260906160743 23 331 0.0 8.0 0.00 0.00 0.00 70 1013.5
20260906155313 23 329 1.6 11.3 0.00 0.00 0.00 69 1013.4
20260906153741 23 39 1.6 9.7 0.00 0.00 0.00 68 1013.4
20260906152249 22 30 9.7 9.7 0.00 0.00 0.00 71 1013.1
20260906150742 21 323 3.2 11.3 0.00 0.00 0.00 74 1013.3
20260906145251 20 327 9.7 17.7 0.00 0.00 0.00 75 1013.7
20260906143743 20 316 11.3 16.1 0.00 0.00 0.00 77 1014.0
20260906142251 19 297 8.0 19.3 0.00 0.00 0.00 78 1014.1
20260906140758 18 295 9.7 19.3 0.00 0.00 0.00 79 1014.2
20260906135249 18 279 9.7 17.7 0.00 0.00 0.00 80 1014.1
20260906133759 18 274 11.3 17.7 0.00 0.00 0.00 81 1014.2
20260906132251 18 276 14.5 16.1 0.00 0.00 0.00 81 1014.1
20260906130740 18 262 3.2 9.7 0.00 0.00 0.00 81 1014.0
20260906125309 18 223 6.4 12.9 0.00 0.00 0.00 82 1014.0
20260906123740 17 196 4.8 11.3 0.00 0.00 0.00 81 1013.9
20260906122308 18 338 0.0 8.0 0.00 0.00 0.00 79 1013.3
20260906120740 19 351 3.2 9.7 0.00 0.00 0.00 79 1012.7
20260906115307 19 168 0.0 9.7 0.00 0.00 0.00 79 1013.6
20260906113813 19 315 1.6 8.0 0.00 0.00 0.00 78 1013.3
20260906112248 20 274 1.6 8.0 0.00 0.00 0.00 77 1013.6
20260906110755 20 53 4.8 20.9 0.00 0.00 0.00 77 1012.4
20260906105249 20 17 6.4 29.0 0.00 0.00 0.00 76 1011.9
20260906103759 20 41 9.7 14.5 0.00 0.00 0.00 76 1014.2
20260906102248 20 320 4.8 14.5 0.00 0.00 0.00 76 1014.6
20260906100740 20 2 9.7 32.2 0.00 0.00 0.00 76 1014.1
20260906095250 19 357 9.7 19.3 0.00 0.00 0.00 75 1014.2
20260906093743 18 317 4.8 12.9 0.00 0.00 0.00 74 1015.2
20260906092253 18 290 14.5 22.5 0.00 0.00 0.00 75 1015.5
20260906090746 18 290 19.3 25.7 0.00 0.00 0.00 74 1015.4
20260906085253 20 246 12.9 25.7 0.00 0.00 0.00 73 1015.6
20260906083741 20 278 9.7 9.7 0.00 0.00 0.00 76 1014.6
20260906082252 19 17 3.2 8.0 0.00 0.00 0.00 76 1014.2
20260906080741 20 20 0.0 6.4 0.00 0.00 0.00 75 1014.1
20260906075309 20 32 4.8 11.3 0.00 0.00 0.00 75 1013.7
20260906073801 20 2 3.2 8.0 0.00 0.00 0.00 74 1013.7
20260906072248 20 21 6.4 8.0 0.00 0.00 0.00 73 1013.9
20260906070742 20 357 4.8 14.5 0.00 0.00 0.00 73 1014.1
20260906065250 20 21 0.0 11.3 0.00 0.00 0.00 72 1013.9
20260906063742 20 18 6.4 8.0 0.00 0.00 0.00 71 1013.8
20260906062251 20 354 6.4 11.3 0.00 0.00 0.00 70 1013.9
20260906060740 20 40 1.6 9.7 0.00 0.00 0.00 70 1014.1
20260906055254 21 23 1.6 8.0 0.00 0.00 0.00 70 1014.3
20260906053743 21 4 1.6 8.0 0.00 0.00 0.00 69 1014.4
20260906052256 21 358 1.6 8.0 0.00 0.00 0.00 68 1014.6
20260906050744 21 16 3.2 9.7 0.00 0.00 0.00 67 1014.8
20260906045300 21 9 8.0 12.9 0.00 0.00 0.00 67 1014.8
20260906043749 21 11 11.3 14.5 0.00 0.00 0.00 66 1014.7
20260906042255 21 356 8.0 20.9 0.00 0.00 0.00 65 1014.8
20260906040745 21 354 3.2 19.3 0.00 0.00 0.00 64 1014.8
20260906035254 21 13 14.5 17.7 0.00 0.00 0.00 63 1015.0
20260906033746 21 347 6.4 20.9 0.00 0.00 0.00 63 1015.1
20260906032255 21 350 4.8 16.1 0.00 0.00 0.00 62 1015.1
20260906030759 22 317 6.4 19.3 0.00 0.00 0.00 61 1015.0
20260906025249 22 347 6.4 14.5 0.00 0.00 0.00 60 1014.7
20260906023752 22 340 3.2 14.5 0.00 0.00 0.00 59 1014.6
20260906022306 22 335 9.7 20.9 0.00 0.00 0.00 57 1014.2
20260906020749 23 358 3.2 11.3 0.00 0.00 0.00 55 1014.1
20260906015315 23 331 4.8 16.1 0.00 0.00 0.00 54 1013.8
20260906013742 24 322 12.9 25.7 0.00 0.00 0.00 52 1013.8
20260906012248 25 307 19.3 24.1 0.00 0.00 0.00 50 1013.5
20260906010753 26 312 17.7 33.8 0.00 0.00 0.00 49 1013.4
20260906005244 26 323 24.1 29.0 0.00 0.00 0.00 48 1013.3
20260906003750 27 287 17.7 33.8 0.00 0.00 0.00 47 1013.1
20260906002300 27 294 27.4 37.0 0.00 0.00 0.00 47 1013.0
20260906000744 27 320 19.3 35.4 0.00 0.00 0.00 46 1012.9
20260905235237 28 321 12.9 27.4 0.00 0.00 0.00 45 1012.7
20260905233742 28 320 9.7 17.7 0.00 0.00 0.00 45 1012.8
20260905232251 28 292 9.7 24.1 0.00 0.00 0.00 45 1012.8
20260905230741 28 354 4.8 19.3 0.00 0.00 0.00 44 1012.7
20260905225245 28 321 9.7 20.9 0.00 0.00 0.00 45 1012.8
20260905223754 28 316 11.3 29.0 0.00 0.00 0.00 44 1012.8
20260905222243 28 292 25.7 33.8 0.00 0.00 0.00 45 1012.8
20260905220749 28 304 16.1 29.0 0.00 0.00 0.00 44 1012.8